{"data":{"norad_id":59131,"epoch":"2026-09-22T10:10:26.046048Z","epoch_age_seconds":91735,"freshness":"FRESH","line1":"1 59131U 24043AK  26265.42391257  .00004175  00000+0  13747-3 0  9997","line2":"2 59131  97.5778  45.6395 0008499 254.1432 105.8873 15.32045865141969","mean_motion":15.32045865,"eccentricity":0.0008499,"inclination_deg":97.5778,"raan_deg":45.6395,"arg_perigee_deg":254.1432,"mean_anomaly_deg":105.8873,"bstar":0.00013747,"rev_number":14196,"period_min":93.991964137444,"perigee_km":463.88919915249,"apogee_km":475.52916809541,"semimajor_km":6847.846183624,"source":"CELESTRAK","updated_at":"2026-09-23T09:00:19.180299Z"}}